DLH4244 EDDF-EDDN

Flight info

Callsign DLH4244
Flight time 0h 35m
Altitude 19000
Route CINDY8S/18 CINDY Z74 HAREM T104 ELMOX DCT LETKU LETKU1V
Aircraft A333/H-SDE3GHIJ2J3J5M1RVWXY/LB2D1

Departure

Time 2026-05-07 14:06
Airport Frankfurt Main Airport (EDDF)

Arrival

Time 2026-05-07 14:41
Airport Nuremberg Airport (EDDN)
Time Latitude Longitude Altitude Speed Heading
2026-05-07 13:41 50.02948 8.56862 349 ft 0 kts 249°
2026-05-07 13:49 50.02951 8.56875 348 ft 2 kts 247°
2026-05-07 13:49 50.02957 8.56896 348 ft 2 kts 249°
2026-05-07 13:49 50.02962 8.56918 348 ft 2 kts 250°
2026-05-07 13:50 50.02967 8.56940 348 ft 2 kts 249°
2026-05-07 13:50 50.02972 8.56962 348 ft 2 kts 265°
2026-05-07 13:50 50.02971 8.56985 348 ft 2 kts 291°
2026-05-07 13:50 50.02964 8.57005 348 ft 2 kts 315°
2026-05-07 13:51 50.02953 8.57019 348 ft 1 kts 338°
2026-05-07 13:51 50.02948 8.57022 348 ft 0 kts 340°
2026-05-07 13:51 50.02947 8.57022 348 ft 0 kts 340°
2026-05-07 13:55 50.02959 8.57015 348 ft 5 kts 340°
2026-05-07 13:55 50.02981 8.57003 348 ft 3 kts 340°
2026-05-07 13:55 50.03034 8.56972 348 ft 11 kts 340°
2026-05-07 13:56 50.03124 8.56920 346 ft 14 kts 340°
2026-05-07 13:56 50.03201 8.56876 345 ft 0 kts 340°
2026-05-07 13:56 50.03207 8.56872 345 ft 0 kts 340°
2026-05-07 13:57 50.03212 8.56869 345 ft 0 kts 340°
2026-05-07 13:58 50.03244 8.56851 345 ft 10 kts 340°
2026-05-07 13:58 50.03337 8.56775 345 ft 17 kts 304°
2026-05-07 13:58 50.03319 8.56587 345 ft 18 kts 250°
2026-05-07 13:58 50.03273 8.56390 343 ft 20 kts 250°
2026-05-07 13:59 50.03222 8.56177 342 ft 21 kts 249°
2026-05-07 13:59 50.03165 8.55948 342 ft 24 kts 250°
2026-05-07 13:59 50.03095 8.55672 340 ft 27 kts 228°
2026-05-07 13:59 50.02981 8.55483 342 ft 26 kts 250°
2026-05-07 14:00 50.02910 8.55183 340 ft 32 kts 249°
2026-05-07 14:00 50.02879 8.55063 339 ft 0 kts 248°
2026-05-07 14:00 50.02846 8.54956 338 ft 22 kts 244°
2026-05-07 14:00 50.02759 8.54628 341 ft 42 kts 250°
2026-05-07 14:01 50.02660 8.54174 342 ft 43 kts 251°
2026-05-07 14:01 50.02556 8.53734 339 ft 42 kts 250°
2026-05-07 14:01 50.02454 8.53309 336 ft 41 kts 250°
2026-05-07 14:01 50.02357 8.52905 335 ft 39 kts 249°
2026-05-07 14:02 50.02325 8.52775 334 ft 0 kts 250°
2026-05-07 14:03 50.02288 8.52653 332 ft 22 kts 226°
2026-05-07 14:03 50.02227 8.52610 332 ft 0 kts 183°
2026-05-07 14:04 50.02223 8.52610 332 ft 3 kts 183°
2026-05-07 14:04 50.02219 8.52609 332 ft 0 kts 183°
2026-05-07 14:05 50.02217 8.52609 332 ft 1 kts 183°
2026-05-07 14:06 50.01995 8.52608 334 ft 73 kts 180°
2026-05-07 14:06 50.01204 8.52619 334 ft 148 kts 179°
2026-05-07 14:06 50.00118 8.52642 761 ft 158 kts 182°
2026-05-07 14:06 49.99018 8.52609 1315 ft 158 kts 184°
2026-05-07 14:07 49.97910 8.52479 1816 ft 164 kts 189°
2026-05-07 14:07 49.96747 8.52414 2262 ft 175 kts 171°
2026-05-07 14:07 49.95695 8.53411 2616 ft 188 kts 128°
2026-05-07 14:07 49.95215 8.55338 2984 ft 199 kts 100°
2026-05-07 14:08 49.94750 8.57415 3428 ft 208 kts 111°
2026-05-07 14:08 49.94145 8.59517 3879 ft 218 kts 107°
2026-05-07 14:08 49.93970 8.61932 3953 ft 232 kts 89°
2026-05-07 14:08 49.93904 8.64677 4050 ft 263 kts 91°
2026-05-07 14:09 49.93763 8.67539 3987 ft 267 kts 99°
2026-05-07 14:09 49.92998 8.70156 3994 ft 271 kts 127°
2026-05-07 14:09 49.91553 8.72052 4010 ft 273 kts 146°
2026-05-07 14:09 49.89994 8.73705 4002 ft 273 kts 144°
2026-05-07 14:10 49.88538 8.75491 3970 ft 272 kts 131°
2026-05-07 14:10 49.87539 8.77943 3999 ft 270 kts 117°
2026-05-07 14:10 49.86624 8.80505 4000 ft 270 kts 117°
2026-05-07 14:10 49.85669 8.83153 4601 ft 287 kts 118°
2026-05-07 14:11 49.84724 8.85760 5964 ft 279 kts 118°
2026-05-07 14:11 49.83781 8.88366 6985 ft 283 kts 118°
2026-05-07 14:11 49.82813 8.91033 7982 ft 288 kts 118°
2026-05-07 14:11 49.81836 8.93722 8959 ft 293 kts 118°
2026-05-07 14:12 49.80828 8.96493 9926 ft 298 kts 118°
2026-05-07 14:12 49.79808 8.99294 10754 ft 308 kts 119°
2026-05-07 14:12 49.78748 9.02203 11124 ft 324 kts 119°
2026-05-07 14:12 49.77628 9.05269 12075 ft 329 kts 119°
2026-05-07 14:13 49.76516 9.08333 13165 ft 328 kts 117°
2026-05-07 14:13 49.75782 9.11704 13966 ft 335 kts 101°
2026-05-07 14:13 49.75433 9.14005 14565 ft 338 kts 103°
2026-05-07 14:13 49.74684 9.18729 15763 ft 343 kts 102°
2026-05-07 14:14 49.74553 9.22401 16600 ft 345 kts 80°
2026-05-07 14:14 49.75321 9.25867 17449 ft 344 kts 58°
2026-05-07 14:14 49.76875 9.28676 18251 ft 344 kts 39°
2026-05-07 14:14 49.78451 9.31418 18993 ft 345 kts 56°
2026-05-07 14:15 49.79372 9.34869 18981 ft 352 kts 77°
2026-05-07 14:15 49.79406 9.38595 19011 ft 351 kts 99°
2026-05-07 14:15 49.78568 9.42144 19034 ft 354 kts 117°
2026-05-07 14:15 49.77224 9.45342 19022 ft 355 kts 130°
2026-05-07 14:16 49.75407 9.47979 19007 ft 354 kts 142°
2026-05-07 14:16 49.73411 9.50185 19018 ft 354 kts 146°
2026-05-07 14:16 49.71329 9.52257 19019 ft 355 kts 148°
2026-05-07 14:16 49.69235 9.54251 19022 ft 355 kts 148°
2026-05-07 14:17 49.67124 9.56219 19016 ft 355 kts 149°
2026-05-07 14:17 49.65012 9.58169 19020 ft 355 kts 149°
2026-05-07 14:17 49.62855 9.60153 19020 ft 355 kts 149°
2026-05-07 14:17 49.60761 9.62073 19014 ft 355 kts 149°
2026-05-07 14:18 49.58624 9.64028 19015 ft 355 kts 149°
2026-05-07 14:18 49.56498 9.65972 19020 ft 356 kts 150°
2026-05-07 14:18 49.54387 9.67898 19015 ft 356 kts 150°
2026-05-07 14:18 49.52245 9.69852 19020 ft 357 kts 150°
2026-05-07 14:19 49.50084 9.71820 19025 ft 357 kts 150°
2026-05-07 14:19 49.47961 9.73753 19017 ft 357 kts 150°
2026-05-07 14:19 49.45834 9.75687 19021 ft 357 kts 150°
2026-05-07 14:19 49.43669 9.77654 19022 ft 357 kts 150°
2026-05-07 14:20 49.41530 9.79596 19024 ft 357 kts 150°
2026-05-07 14:20 49.39563 9.81879 19005 ft 357 kts 133°
2026-05-07 14:20 49.38222 9.85091 19024 ft 358 kts 111°
2026-05-07 14:20 49.37720 9.88752 19023 ft 355 kts 91°
2026-05-07 14:21 49.37726 9.92562 19034 ft 354 kts 89°
2026-05-07 14:21 49.37639 9.96344 19027 ft 357 kts 91°
2026-05-07 14:21 49.37498 10.00153 19027 ft 355 kts 92°
2026-05-07 14:21 49.37334 10.03928 19024 ft 355 kts 92°
2026-05-07 14:22 49.37162 10.07660 19024 ft 355 kts 92°
2026-05-07 14:22 49.36980 10.11466 19021 ft 355 kts 92°
2026-05-07 14:22 49.36797 10.15246 19019 ft 354 kts 92°
2026-05-07 14:22 49.36613 10.18985 19026 ft 354 kts 92°
2026-05-07 14:23 49.36427 10.22759 19026 ft 356 kts 93°
2026-05-07 14:23 49.36235 10.26601 19022 ft 356 kts 92°
2026-05-07 14:23 49.36046 10.30359 19022 ft 356 kts 92°
2026-05-07 14:23 49.35855 10.34128 19025 ft 356 kts 92°
2026-05-07 14:24 49.35661 10.37957 19025 ft 356 kts 92°
2026-05-07 14:24 49.35470 10.41676 19021 ft 356 kts 93°
2026-05-07 14:24 49.35273 10.45505 19022 ft 357 kts 93°
2026-05-07 14:24 49.35077 10.49266 19027 ft 357 kts 92°
2026-05-07 14:25 49.34993 10.53033 19013 ft 355 kts 82°
2026-05-07 14:25 49.35669 10.56673 19019 ft 351 kts 60°
2026-05-07 14:25 49.37107 10.59651 18861 ft 349 kts 40°
2026-05-07 14:25 49.38950 10.62006 18413 ft 348 kts 39°
2026-05-07 14:26 49.40684 10.64581 17955 ft 345 kts 42°
2026-05-07 14:26 49.42237 10.67330 17483 ft 348 kts 56°
2026-05-07 14:26 49.43116 10.70755 17008 ft 350 kts 76°
2026-05-07 14:26 49.43174 10.74503 16525 ft 350 kts 98°
2026-05-07 14:27 49.42684 10.78151 16069 ft 349 kts 99°
2026-05-07 14:27 49.42307 10.81799 15597 ft 347 kts 98°
2026-05-07 14:27 49.41949 10.85458 15124 ft 345 kts 97°
2026-05-07 14:27 49.41602 10.89041 14640 ft 343 kts 97°
2026-05-07 14:28 49.41251 10.92650 14162 ft 340 kts 97°
2026-05-07 14:28 49.40906 10.96199 13687 ft 338 kts 97°
2026-05-07 14:28 49.40556 10.99789 13197 ft 336 kts 97°
2026-05-07 14:28 49.40214 11.03280 12723 ft 334 kts 98°
2026-05-07 14:29 49.39870 11.06776 12256 ft 332 kts 98°
2026-05-07 14:29 49.39525 11.10273 11796 ft 330 kts 98°
2026-05-07 14:29 49.39182 11.13739 11367 ft 328 kts 98°
2026-05-07 14:29 49.38839 11.17188 10940 ft 325 kts 98°
2026-05-07 14:30 49.38500 11.20597 10541 ft 321 kts 98°
2026-05-07 14:30 49.38164 11.23951 10192 ft 318 kts 98°
2026-05-07 14:30 49.37832 11.27262 10156 ft 305 kts 98°
2026-05-07 14:30 49.37516 11.30401 10046 ft 294 kts 98°
2026-05-07 14:31 49.37208 11.33461 9961 ft 290 kts 98°
2026-05-07 14:31 49.36899 11.36522 9650 ft 291 kts 98°
2026-05-07 14:31 49.36596 11.39508 9604 ft 280 kts 98°
2026-05-07 14:31 49.36297 11.42446 9351 ft 277 kts 98°
2026-05-07 14:32 49.36002 11.45340 9071 ft 275 kts 98°
2026-05-07 14:32 49.35706 11.48238 8797 ft 274 kts 98°
2026-05-07 14:32 49.35412 11.51104 8528 ft 272 kts 98°
2026-05-07 14:32 49.35117 11.53970 8266 ft 271 kts 98°
2026-05-07 14:33 49.35079 11.56807 7993 ft 267 kts 76°
2026-05-07 14:33 49.35875 11.59323 7758 ft 260 kts 46°
2026-05-07 14:33 49.37317 11.60924 7396 ft 256 kts 17°
2026-05-07 14:33 49.39027 11.61520 7132 ft 252 kts
2026-05-07 14:34 49.40756 11.61986 6844 ft 251 kts
2026-05-07 14:34 49.42448 11.61958 6561 ft 246 kts 342°
2026-05-07 14:34 49.43905 11.60646 6283 ft 240 kts 313°
2026-05-07 14:34 49.44702 11.58435 5927 ft 241 kts 283°
2026-05-07 14:35 49.45004 11.55908 5744 ft 236 kts 280°
2026-05-07 14:35 49.45270 11.53489 5640 ft 229 kts 279°
2026-05-07 14:35 49.45520 11.51100 5542 ft 223 kts 279°
2026-05-07 14:35 49.45763 11.48740 5454 ft 219 kts 279°
2026-05-07 14:36 49.45997 11.46459 5371 ft 213 kts 279°
2026-05-07 14:36 49.46221 11.44264 5283 ft 207 kts 279°
2026-05-07 14:36 49.46445 11.42088 5159 ft 204 kts 280°
2026-05-07 14:36 49.46670 11.39899 4872 ft 209 kts 279°
2026-05-07 14:37 49.46893 11.37689 4599 ft 212 kts 279°
2026-05-07 14:37 49.47349 11.33131 4011 ft 220 kts 279°
2026-05-07 14:37 49.47580 11.30799 3736 ft 222 kts 279°
2026-05-07 14:38 49.47795 11.28532 3474 ft 207 kts 280°
2026-05-07 14:38 49.47998 11.26469 3221 ft 181 kts 280°
2026-05-07 14:38 49.48173 11.24726 3085 ft 152 kts 281°
2026-05-07 14:38 49.48323 11.23234 2845 ft 132 kts 281°
2026-05-07 14:39 49.48462 11.21878 2657 ft 126 kts 280°
2026-05-07 14:39 49.48597 11.20525 2492 ft 128 kts 281°
2026-05-07 14:39 49.48739 11.19162 2324 ft 128 kts 278°
2026-05-07 14:39 49.48872 11.17811 2153 ft 128 kts 277°
2026-05-07 14:40 49.49008 11.16476 1984 ft 128 kts 279°
2026-05-07 14:40 49.49144 11.15123 1808 ft 128 kts 278°
2026-05-07 14:40 49.49276 11.13768 1637 ft 128 kts 277°
2026-05-07 14:40 49.49408 11.12411 1466 ft 128 kts 279°
2026-05-07 14:41 49.49549 11.11074 1289 ft 127 kts 280°
2026-05-07 14:41 49.49683 11.09721 1133 ft 128 kts 278°
2026-05-07 14:41 49.49809 11.08451 1043 ft 95 kts 278°
2026-05-07 14:41 49.49865 11.07885 1034 ft 12 kts 279°
2026-05-07 14:42 49.49865 11.07876 1034 ft 0 kts 279°
2026-05-07 14:42 49.49871 11.07823 1034 ft 13 kts 279°
2026-05-07 14:42 49.49898 11.07567 1030 ft 34 kts 279°
2026-05-07 14:43 49.49941 11.07146 1026 ft 35 kts 274°
2026-05-07 14:43 49.49844 11.07036 1024 ft 0 kts 162°
2026-05-07 14:44 49.49797 11.07062 1024 ft 13 kts 155°
2026-05-07 14:44 49.49760 11.07107 1024 ft 6 kts 127°
2026-05-07 14:44 49.49755 11.07119 1024 ft 0 kts 121°
2026-05-07 14:45 49.49753 11.07126 1024 ft 4 kts 118°
2026-05-07 14:45 49.49734 11.07240 1024 ft 16 kts 100°
2026-05-07 14:46 49.49710 11.07471 1024 ft 25 kts 99°
2026-05-07 14:46 49.49681 11.07727 1029 ft 11 kts 122°
2026-05-07 14:46 49.49672 11.07743 1029 ft 0 kts 132°
2026-05-07 14:46 49.49639 11.07768 1029 ft 9 kts 172°
2026-05-07 14:47 49.49581 11.07850 1031 ft 15 kts 106°
2026-05-07 14:47 49.49559 11.08043 1034 ft 22 kts 99°
2026-05-07 14:47 49.49529 11.08320 1034 ft 28 kts 110°
2026-05-07 14:47 49.49496 11.08517 1037 ft 5 kts 70°
2026-05-07 14:48 49.49513 11.08548 1038 ft 2 kts 14°
2026-05-07 14:48 49.49530 11.08551 1039 ft 1 kts
2026-05-07 14:48 49.49535 11.08553 1039 ft 0 kts